Date String (YYYY-MM-DD hh:mm:ss) UTC,Instrument flags,Ambient pressure (hPa),Sample flow (lpm),Bypass flow (lpm),Sample temperature (°C),Ambient temperature (°C),ASC tube jacket temperature (°C),LED temperature (°C),Box temperature (°C),Sample RH (%),Span deviation,Mass concentration (μg/m³),Mass concentration (μg/m³),Mass concentration (μg/m³)
DateTimeUTC,F1_M11,P_M11,Q1_M11,Q2_M11,T1_M11,T2_M11,T3_M11,T4_M11,T5_M11,U1_M11,ZSPAN_M11,X0_M11,X2_M11,X1_M11
2023-01-08 18:00:00,,0826.6,4.99,0.00,22.6,21.5,00.0,31.3,24.3,06.8,0000.0,0001.75,0001.21,0001.10
2023-01-08 18:01:00,,0826.5,4.99,0.00,22.6,21.5,00.0,31.3,24.4,08.9,0000.0,0001.57,0001.11,0001.01
2023-01-08 18:02:00,,0826.5,5.00,0.00,22.6,21.3,00.0,31.3,24.3,09.4,0000.0,0001.58,0001.12,0001.01
2023-01-08 18:03:00,,0826.5,5.00,0.00,22.6,21.2,00.0,31.3,24.3,09.1,0000.0,0001.70,0001.20,0001.06
2023-01-08 18:04:00,,0826.5,5.00,0.00,22.6,21.2,00.0,31.4,24.3,10.0,0000.0,0002.20,0001.34,0001.20
2023-01-08 18:05:00,,0826.6,5.00,0.00,22.5,21.1,00.0,31.4,24.3,10.4,0000.0,0003.45,0001.60,0001.42
2023-01-08 18:06:00,,0826.5,5.00,0.00,22.5,21.1,00.0,31.4,24.3,10.3,0000.0,0003.70,0001.84,0001.66
2023-01-08 18:07:00,,0826.5,5.01,0.00,22.5,21.1,00.0,31.3,24.3,09.7,0000.0,0003.91,0002.08,0001.89
2023-01-08 18:08:00,,0826.5,5.01,0.00,22.5,21.2,00.0,31.3,24.3,08.2,0000.0,0004.69,0002.21,0002.03
2023-01-08 18:09:00,,0826.4,5.00,0.00,22.5,21.2,00.0,31.3,24.3,07.6,0000.0,0004.82,0002.26,0002.08
2023-01-08 18:10:00,,0826.2,4.99,0.00,22.5,21.2,00.0,31.3,24.3,08.1,0000.0,0004.93,0002.35,0002.18
2023-01-08 18:11:00,,0826.2,5.00,0.00,22.5,21.2,00.0,31.3,24.3,07.8,0000.0,0005.06,0002.45,0002.27
2023-01-08 18:12:00,,0826.4,5.00,0.00,22.5,21.3,00.0,31.3,24.3,08.1,0000.0,0005.10,0002.48,0002.32
2023-01-08 18:13:00,,0826.2,5.01,0.00,22.5,21.3,00.0,31.3,24.3,07.5,0000.0,0005.09,0002.43,0002.25
2023-01-08 18:14:00,,0826.2,5.00,0.00,22.5,21.4,00.0,31.3,24.3,07.1,0000.0,0004.95,0002.32,0002.15
2023-01-08 18:15:00,,0826.2,5.00,0.00,22.5,21.4,00.0,31.3,24.3,06.9,0000.0,0004.67,0002.16,0002.00
2023-01-08 18:16:00,,0826.1,5.00,0.00,22.5,21.4,00.0,31.4,24.4,06.7,0000.0,0003.40,0001.98,0001.80
2023-01-08 18:17:00,,0826.2,5.00,0.00,22.6,21.5,00.0,31.4,24.4,07.2,0000.0,0003.13,0001.77,0001.57
2023-01-08 18:18:00,,0826.2,4.99,0.00,22.6,21.5,00.0,31.4,24.4,10.5,0000.0,0003.46,0002.01,0001.77
2023-01-08 18:19:00,,0826.2,5.00,0.00,22.6,21.5,00.0,31.4,24.4,11.2,0000.0,0004.03,0002.64,0002.31
2023-01-08 18:20:00,,0826.1,5.00,0.00,22.6,21.5,00.0,31.4,24.4,10.6,0000.0,0004.76,0003.17,0002.87
2023-01-08 18:21:00,,0826.2,5.00,0.00,22.6,21.5,00.0,31.4,24.4,10.1,-003.0,0005.40,0003.43,0003.22
2023-01-08 18:22:00,,0826.1,5.00,0.00,22.7,21.6,00.0,31.4,24.4,09.5,-003.0,0005.91,0003.63,0003.41
2023-01-08 18:23:00,,0826.2,5.00,0.00,22.7,21.6,00.0,31.4,24.5,09.3,-003.1,0006.41,0003.80,0003.56
2023-01-08 18:24:00,,0826.2,5.00,0.00,22.7,21.6,00.0,31.4,24.5,09.7,-002.5,0007.00,0004.01,0003.76
2023-01-08 18:25:00,,0826.2,5.00,0.00,22.7,21.6,00.0,31.4,24.5,09.1,-002.7,0007.37,0004.19,0003.94
2023-01-08 18:26:00,,0826.2,5.00,0.00,22.7,21.6,00.0,31.4,24.5,09.0,-002.9,0007.56,0004.33,0004.09
2023-01-08 18:27:00,,0826.0,5.00,0.00,22.7,21.6,00.0,31.5,24.6,08.2,-003.0,0007.67,0004.42,0004.19
2023-01-08 18:28:00,,0826.0,5.00,0.00,22.7,21.6,00.0,31.5,24.6,07.8,-002.9,0007.67,0004.44,0004.21
2023-01-08 18:29:00,,0825.9,5.00,0.00,22.7,21.6,00.0,31.5,24.6,09.5,-002.4,0007.60,0004.36,0004.13
2023-01-08 18:30:00,,0826.1,5.00,0.00,22.7,21.4,00.0,31.5,24.5,10.5,-002.3,0007.39,0004.28,0004.07
2023-01-08 18:31:00,,0826.1,4.99,0.00,22.7,21.3,00.0,31.5,24.5,10.7,-002.1,0007.35,0004.30,0004.09
2023-01-08 18:32:00,,0826.0,5.01,0.00,22.7,21.3,00.0,31.5,24.4,10.1,-001.9,0007.55,0004.39,0004.15
2023-01-08 18:33:00,,0825.8,5.01,0.00,22.7,21.3,00.0,31.5,24.5,09.2,-002.4,0007.61,0004.41,0004.15
2023-01-08 18:34:00,,0826.0,5.00,0.00,22.7,21.3,00.0,31.5,24.5,09.0,-002.1,0007.55,0004.40,0004.14
2023-01-08 18:35:00,,0826.1,4.99,0.00,22.7,21.4,00.0,31.5,24.4,10.2,-002.1,0007.52,0004.40,0004.14
2023-01-08 18:36:00,,0826.2,4.99,0.00,22.6,21.2,00.0,31.5,24.3,12.2,-002.0,0007.92,0004.67,0004.37
2023-01-08 18:37:00,,0826.1,5.00,0.00,22.5,20.9,00.0,31.5,24.1,11.9,-002.0,0008.72,0005.01,0004.69
2023-01-08 18:38:00,,0826.0,5.00,0.00,22.5,20.8,00.0,31.5,24.1,11.6,-002.0,0009.89,0005.43,0005.08
2023-01-08 18:39:00,,0826.1,5.00,0.00,22.5,20.7,00.0,31.4,24.1,11.9,-002.0,0010.55,0005.92,0005.54
2023-01-08 18:40:00,,0826.1,5.00,0.00,22.4,20.7,00.0,31.4,24.0,12.0,-001.7,0010.99,0006.28,0005.91
2023-01-08 18:41:00,,0826.2,5.01,0.00,22.4,20.7,00.0,31.4,24.0,11.8,-001.4,0011.29,0006.48,0006.12
2023-01-08 18:42:00,,0826.2,5.01,0.00,22.4,20.5,00.0,31.4,23.9,12.4,-001.6,0011.71,0006.72,0006.32
2023-01-08 18:43:00,,0826.1,4.99,0.00,22.3,20.4,00.0,31.4,23.9,12.2,-001.8,0011.97,0006.95,0006.54
2023-01-08 18:44:00,,0826.0,5.04,0.00,22.3,20.4,00.0,31.3,23.9,11.8,-001.9,0012.51,0007.33,0006.88
2023-01-08 18:45:00,,0826.0,5.01,0.00,22.3,20.5,00.0,31.3,23.9,11.4,-002.2,0013.16,0007.75,0007.25
2023-01-08 18:46:00,,0826.0,4.99,0.00,22.3,20.5,00.0,31.3,23.9,11.1,-002.6,0013.69,0008.05,0007.55
2023-01-08 18:47:00,,0825.9,5.00,0.00,22.2,20.6,00.0,31.3,24.0,10.9,-002.8,0013.94,0008.18,0007.67
2023-01-08 18:48:00,,0825.8,5.00,0.00,22.2,20.7,00.0,31.2,24.0,10.4,-002.8,0013.71,0008.19,0007.66
2023-01-08 18:49:00,,0826.0,4.99,0.00,22.2,20.7,00.0,31.2,24.0,10.1,-002.6,0013.22,0008.19,0007.60
2023-01-08 18:50:00,,0825.8,5.00,0.00,22.3,20.8,00.0,31.2,24.0,10.1,-002.6,0013.99,0008.10,0007.51
2023-01-08 18:51:00,,0825.6,5.00,0.00,22.3,20.8,00.0,31.2,24.1,10.0,-003.1,0014.01,0007.97,0007.36
2023-01-08 18:52:00,,0825.6,5.01,0.00,22.3,20.9,00.0,31.2,24.1,10.6,-003.3,0014.46,0007.90,0007.28
2023-01-08 18:53:00,,0825.6,5.01,0.00,22.3,21.0,00.0,31.2,24.0,11.4,-003.5,0014.58,0007.90,0007.25
2023-01-08 18:54:00,,0825.7,5.00,0.00,22.3,21.0,00.0,31.2,24.0,08.6,-003.7,0014.09,0007.54,0006.94
2023-01-08 18:55:00,,0825.7,4.99,0.00,22.3,21.0,00.0,31.2,23.9,10.4,-003.5,0013.62,0007.19,0006.63
2023-01-08 18:56:00,,0825.6,5.00,0.00,22.3,21.0,00.0,31.2,23.9,09.5,-003.3,0013.21,0006.90,0006.36
2023-01-08 18:57:00,,0825.6,5.00,0.00,22.3,21.0,00.0,31.2,24.0,08.1,-003.4,0012.52,0006.47,0005.97
2023-01-08 18:58:00,,0825.6,5.00,0.00,22.3,21.1,00.0,31.2,24.0,07.4,-002.7,0011.74,0005.95,0005.48
2023-01-08 18:59:00,,0825.5,5.00,0.00,22.3,21.1,00.0,31.2,24.1,08.0,-003.0,0011.03,0005.50,0005.05
